Miscellaneous Local Product
Issued by NWS Hastings, NE

Home | Current Version | Previous Version | Graphics & Text | Print | Product List | Glossary On
Versions: 1 2 3 4 5 6 7 8 9 10 11 12 13 14 15 16 17 18 19 20 21 22 23 24 25 26 27 28 29 30 31 32 33 34 35 36 37 38 39 40 41 42 43 44 45 46 47 48 49 50
000
AXUS43 KGID 040102
MISGRI

GID CWA HOURLY WEATHER ROUNDUP
NATIONAL WEATHER SERVICE HASTINGS NE
800 PM CDT SUN MAY 03 2015

NOTE: "FAIR" INDICATES FEW OR NO CLOUDS BELOW 12,000 FEET WITH NO
SIGNIFICANT WEATHER AND/OR OBSTRUCTIONS TO VISIBILITY.

...SOUTH CENTRAL NEBRASKA...

CITY           SKY/WX    TMP DP  RH WIND       PRES   REMARKS
GRAND ISLAND   CLEAR     79  56  45 N18       29.76R
HASTINGS       PTCLDY    81  55  40 N21       29.75R
KEARNEY        CLEAR     77  52  41 N20       29.79R
ORD            CLEAR     72  47  40 N20G31    29.83R
YORK           PTCLDY    77  55  47 E10       29.71R
AURORA         PTCLDY    82  47  29 N9        29.73R
LEXINGTON      CLEAR     76  49  37 N14       29.83R
HOLDREGE       PTCLDY    79  48  34 N21       29.79R
HEBRON         PTCLDY    83  50  31 S15G24    29.72R

...NEBRASKA PANHANDLE...

CITY           SKY/WX    TMP DP  RH WIND       PRES   REMARKS
CHADRON        CLOUDY    66  40  38 E14       29.98R
ALLIANCE       CLOUDY    64  40  41 NE12      29.99R
SCOTTSBLUFF    CLOUDY    66  38  35 E10G20    29.99R
SIDNEY         CLOUDY    65  42  43 N9        30.00R

...WESTERN AND NORTH CENTRAL NEBRASKA...

CITY           SKY/WX    TMP DP  RH WIND       PRES   REMARKS
VALENTINE      CLEAR     68  35  29 NE16      29.97R
AINSWORTH      CLOUDY    68  36  30 N17       29.96R
ONEILL         PTCLDY    69  41  35 N20G26    29.88R
BROKEN BOW     CLEAR     71  45  39 N21G28    29.87R
IMPERIAL       MOCLDY    72  41  32 NE12      29.89R
NORTH PLATTE   PTCLDY    70  45  40 N17       29.90R
MCCOOK         PTCLDY    79  44  28 N17       29.82R

...EASTERN NEBRASKA...

CITY           SKY/WX    TMP DP  RH WIND       PRES   REMARKS
NORFOLK        PTCLDY    76  47  35 NE18G28   29.81R
SO SIOUX CITY  PTCLDY    77  44  30 NE23G30   29.76R
TEKAMAH        CLOUDY    77  59  53 S7        29.74R
COLUMBUS       PTCLDY    77  54  44 S12G17    29.74S
ALBION         CLEAR     75  49  39 N21G29    29.79R
OMAHA EPPLEY   LGT RAIN  75  61  61 SE21      29.72F
MILLARD        CLOUDY    80  59  49 S7G25     29.73F
LINCOLN        CLOUDY    72  62  71 SE21      29.76R THUNDER
NEBRASKA CITY  CLOUDY    76  50  40 SE10      29.78R THUNDER
BEATRICE       MOCLDY    82  57  42 S17       29.72R
FALLS CITY     CLOUDY    77  57  50 SE8       29.76S

...NORTHERN KANSAS...

CITY           SKY/WX    TMP DP  RH WIND       PRES   REMARKS
GOODLAND       CLOUDY    75  43  31 N8        29.85S
HILL CITY      MOCLDY    78  58  49 S3        29.77R
NORTON         CLEAR     82  36  18 N8        29.77R
PHILLIPSBURG   PTCLDY    88  45  22 S3        29.74R
SMITH CENTER   CLEAR     81  48  32 S8        29.74S
BELOIT           N/A     79  57  47 S9        29.73S
HAYS           PTCLDY    79  48  34 S10       29.78R
RUSSELL        MOCLDY    80  53  39 S10       29.76R
CONCORDIA      PTCLDY    79  56  45 S14       29.74F
SALINA         MOCLDY    80  57  45 S9        29.77S
TOPEKA         MOCLDY    80  56  43 S12       29.81R



USA.gov is the U.S. government's official web portal to all federal, state and local government web resources and services.